KB4RFE Weather Reports


time (UTC)temp
C
wind
direction
speed
KPH
gust
KPH
rain 1hr
cm
rain 24hr
cm
rain mn
cm
humidity
%
barometer
mb
20260503214121 18 228 11.3 19.3 0.00 0.00 0.00 54 1020.0
20260503213620 19 238 9.7 11.3 0.00 0.00 0.00 56 1019.9
20260503213116 20 213 6.4 12.9 0.00 0.00 0.00 56 1019.9
20260503212614 19 237 11.3 11.3 0.00 0.00 0.00 55 1020.0
20260503212111 19 197 6.4 9.7 0.00 0.00 0.00 55 1020.0
20260503211608 19 245 8.0 11.3 0.00 0.00 0.00 55 1020.0
20260503211103 19 222 6.4 16.1 0.00 0.00 0.00 53 1020.2
20260503210600 19 220 9.7 17.7 0.00 0.00 0.00 54 1020.3
20260503210056 20 179 8.0 9.7 0.00 0.00 0.00 55 1020.4
20260503205553 19 250 3.2 11.3 0.00 0.00 0.00 54 1020.4
20260503205049 19 206 12.9 12.9 0.00 0.00 0.00 52 1020.5
20260503204546 20 226 17.7 20.9 0.00 0.00 0.00 54 1020.5
20260503204043 20 196 9.7 14.5 0.00 0.00 0.00 55 1020.4
20260503203540 20 245 8.0 11.3 0.00 0.00 0.00 54 1020.4
20260503203037 19 189 8.0 17.7 0.00 0.00 0.00 55 1020.3
20260503202535 19 222 3.2 12.9 0.00 0.00 0.00 55 1020.3
20260503202033 19 233 11.3 16.1 0.00 0.00 0.00 56 1020.6
20260503201531 20 222 16.1 17.7 0.00 0.00 0.00 56 1020.5
20260503201028 19 204 6.4 12.9 0.00 0.00 0.00 58 1020.7
20260503200524 19 180 8.0 19.3 0.00 0.00 0.00 56 1020.6
20260503200021 19 194 14.5 14.5 0.00 0.00 0.00 58 1020.7
20260503195518 20 202 8.0 14.5 0.00 0.00 0.00 51 1020.8
20260503195015 20 184 9.7 19.3 0.00 0.00 0.00 57 1020.8
20260503194512 20 238 6.4 12.9 0.00 0.00 0.00 58 1020.9
20260503194012 20 199 3.2 14.5 0.00 0.00 0.00 54 1021.0
20260503193508 20 207 3.2 9.7 0.00 0.00 0.00 51 1020.9
20260503193004 19 189 12.9 14.5 0.00 0.00 0.00 54 1021.1
20260503192500 19 175 9.7 16.1 0.00 0.00 0.00 53 1021.0
20260503191955 19 190 6.4 14.5 0.00 0.00 0.00 57 1021.4
20260503191453 20 205 9.7 9.7 0.00 0.00 0.00 57 1021.4
20260503190949 19 185 11.3 17.7 0.00 0.00 0.00 55 1021.4
20260503190447 19 212 9.7 17.7 0.00 0.00 0.00 59 1021.5
20260503185944 19 203 16.1 16.1 0.00 0.00 0.00 57 1021.8
20260503185440 19 192 14.5 16.1 0.00 0.00 0.00 56 1021.7
20260503184940 19 204 9.7 16.1 0.00 0.00 0.00 56 1021.7
20260503184436 19 203 4.8 9.7 0.00 0.00 0.00 58 1021.6
20260503183933 18 219 1.6 17.7 0.00 0.00 0.00 59 1021.8
20260503183429 19 201 14.5 20.9 0.00 0.00 0.00 54 1021.9
20260503182926 18 197 9.7 16.1 0.00 0.00 0.00 55 1021.9
20260503182425 19 175 4.8 16.1 0.00 0.00 0.00 54 1021.9
20260503181922 20 189 4.8 19.3 0.00 0.00 0.00 59 1022.0
20260503181419 20 201 8.0 20.9 0.00 0.00 0.00 55 1022.1
20260503180915 20 202 8.0 12.9 0.00 0.00 0.00 55 1022.2
20260503180414 20 233 4.8 11.3 0.00 0.00 0.00 61 1022.0
20260503175910 20 194 11.3 12.9 0.00 0.00 0.00 53 1022.1
20260503175409 20 162 3.2 3.2 0.00 0.00 0.00 53 1022.0
20260503174904 20 231 3.2 4.8 0.00 0.00 0.00 56 1022.1
20260503174403 20 149 0.0 4.8 0.00 0.00 0.00 56 1021.9
20260503173902 20 197 9.7 9.7 0.00 0.00 0.00 53 1021.9
20260503173359 20 210 8.0 14.5 0.00 0.00 0.00 53 1022.2
20260503172856 20 223 4.8 4.8 0.00 0.00 0.00 58 1022.3
20260503172353 20 162 3.2 6.4 0.00 0.00 0.00 60 1022.4
20260503171849 20 196 0.0 6.4 0.00 0.00 0.00 55 1022.1
20260503171346 20 309 0.0 11.3 0.00 0.00 0.00 56 1022.3
20260503170844 20 158 3.2 3.2 0.00 0.00 0.00 53 1022.3
20260503170340 20 201 0.0 11.3 0.00 0.00 0.00 57 1022.4
20260503150732 19 15 1.6 8.0 0.00 0.00 0.00 49 1022.5
20260503150228 18 36 9.7 9.7 0.00 0.00 0.00 53 1022.6
20260503140153 16 12 8.0 9.7 0.00 0.00 0.00 61 1022.3
20260503131122 14 13 0.0 9.7 0.00 0.00 0.00 86 1022.1
20260503130620 13 18 9.7 9.7 0.00 0.00 0.00 88 1022.1
20260503130118 13 25 1.6 9.7 0.00 0.00 0.00 89 1022.0
20260503110510 8 349 1.6 3.2 0.00 0.00 0.00 99 1020.9
20260503090402 9 331 3.2 3.2 0.00 0.00 0.00 99 1019.4
20260503081329 9 350 3.2 6.4 0.00 0.00 0.00 98 1019.0
20260503080826 9 333 1.6 3.2 0.00 0.00 0.00 98 1019.3
20260503080323 9 323 1.6 3.2 0.00 0.00 0.00 98 1019.2
20260503072759 10 12 1.6 3.2 0.00 0.00 0.00 98 1018.7
20260503072256 10 0 1.6 4.8 0.00 0.00 0.00 98 1018.7
20260503071752 10 11 0.0 6.4 0.00 0.00 0.00 98 1018.6
20260503071249 10 337 3.2 4.8 0.00 0.00 0.00 98 1018.8
20260503070745 10 346 1.6 4.8 0.00 0.00 0.00 98 1018.7
20260503070244 10 359 3.2 3.2 0.00 0.00 0.00 98 1018.8
20260503060209 10 17 0.0 3.2 0.00 0.00 0.00 97 1018.3
20260503054655 11 335 3.2 4.8 0.00 0.00 0.00 97 1018.3
20260503054153 11 351 3.2 3.2 0.00 0.00 0.00 97 1018.4
20260503053651 11 3 0.0 4.8 0.00 0.00 0.00 97 1018.4
20260503053149 11 21 0.0 6.4 0.00 0.00 0.00 97 1018.5
20260503052645 11 4 1.6 8.0 0.00 0.00 0.00 97 1018.4
20260503052141 11 319 3.2 6.4 0.00 0.00 0.00 97 1018.3
20260503051637 11 354 4.8 8.0 0.00 0.00 0.00 97 1018.2
20260503051135 11 48 6.4 9.7 0.00 0.00 0.00 97 1018.3
20260503050631 11 344 3.2 4.8 0.00 0.00 0.00 97 1018.4
20260503050128 11 323 4.8 4.8 0.00 0.00 0.00 97 1018.4
20260503045626 11 11 3.2 4.8 0.00 0.00 0.00 97 1018.3
20260503045122 11 8 6.4 11.3 0.00 0.00 0.00 97 1018.1
20260503044619 11 65 3.2 9.7 0.00 0.00 0.00 97 1018.0
20260503044117 11 322 3.2 4.8 0.00 0.00 0.00 97 1017.9
20260503043613 11 3 3.2 9.7 0.00 0.00 0.00 97 1017.9
20260503043110 11 305 1.6 4.8 0.00 0.00 0.00 97 1018.1
20260503042607 11 18 4.8 6.4 0.00 0.00 0.00 97 1018.0
20260503042103 12 334 3.2 4.8 0.00 0.00 0.00 97 1018.0
20260503041559 12 308 0.0 4.8 0.00 0.00 0.00 97 1017.9
20260503041057 12 20 6.4 8.0 0.00 0.00 0.00 97 1017.9
20260503040554 12 60 4.8 11.3 0.00 0.00 0.00 97 1017.8
20260503040051 12 4 3.2 8.0 0.00 2.77 2.77 97 1017.6
20260503035548 12 19 3.2 8.0 0.00 2.77 2.77 97 1017.6
20260503035046 12 357 3.2 9.7 0.00 2.77 2.77 97 1017.5
20260503034543 12 33 6.4 9.7 0.00 2.77 2.77 97 1017.5
20260503034040 12 35 6.4 8.0 0.00 2.77 2.77 97 1017.4
20260503033537 12 349 3.2 6.4 0.00 2.77 2.77 97 1017.4
20260503033035 12 324 1.6 6.4 0.00 2.77 2.77 97 1017.1
20260503032533 12 16 1.6 3.2 0.00 2.77 2.77 97 1017.3
20260503032031 12 51 6.4 6.4 0.00 2.77 2.77 97 1017.1
20260503031528 12 43 4.8 9.7 0.00 2.77 2.77 97 1017.1
20260503031025 12 354 0.0 3.2 0.00 2.77 2.77 97 1016.8
20260503030521 12 336 3.2 3.2 0.00 2.77 2.77 97 1016.8
20260503030019 12 37 1.6 4.8 0.00 2.77 2.77 97 1016.8
20260503025515 12 339 3.2 6.4 0.00 2.77 2.77 97 1016.9
20260503025013 12 327 4.8 8.0 0.00 2.77 2.77 97 1016.8
20260503024509 12 26 4.8 6.4 0.00 2.77 2.77 97 1016.6
20260503024007 12 15 3.2 4.8 0.00 2.77 2.77 97 1016.6
20260503023503 12 26 6.4 8.0 0.00 2.77 2.77 97 1016.7
20260503023000 12 348 1.6 4.8 0.00 2.77 2.77 97 1016.5
20260503022455 12 354 3.2 3.2 0.00 2.77 2.77 97 1016.4
20260503021951 12 344 3.2 6.4 0.00 2.77 2.77 97 1016.2
20260503021448 12 7 3.2 4.8 0.00 2.77 2.77 97 1016.0
20260503020945 12 5 3.2 4.8 0.00 2.77 2.77 97 1016.2
20260503020443 12 10 3.2 4.8 0.00 2.77 2.77 97 1016.2
20260503015939 12 331 4.8 4.8 0.00 2.77 2.77 97 1015.9
20260503015436 12 359 4.8 6.4 0.00 2.77 2.77 97 1015.8
20260503014932 12 357 3.2 6.4 0.00 2.77 2.77 97 1015.8
20260503014429 12 26 6.4 6.4 0.00 2.77 2.77 97 1015.7
20260503013927 12 358 3.2 6.4 0.00 2.77 2.77 97 1015.4
20260503013424 12 7 4.8 9.7 0.00 2.77 2.77 97 1015.7
20260503012921 12 45 4.8 8.0 0.00 2.77 2.77 97 1015.6
20260503012419 12 2 3.2 4.8 0.00 2.77 2.77 97 1015.6
20260503011915 12 350 3.2 4.8 0.00 2.77 2.77 97 1015.8
20260503011412 12 336 4.8 6.4 0.00 2.77 2.77 97 1015.8
20260503010909 12 348 3.2 4.8 0.00 2.77 2.77 97 1015.8
20260503010406 13 357 6.4 6.4 0.00 2.77 2.77 97 1015.6
20260503005902 13 12 6.4 8.0 0.00 2.77 2.77 97 1015.7
20260503005400 13 0 3.2 4.8 0.00 2.77 2.77 97 1015.6
20260503004856 13 348 3.2 4.8 0.00 2.77 2.77 97 1015.3
20260503004354 13 17 4.8 9.7 0.00 2.77 2.77 97 1015.6
20260503003851 13 33 4.8 4.8 0.00 2.77 2.77 97 1015.2
20260503003348 13 57 1.6 3.2 0.00 2.77 2.77 97 1015.1
20260503002844 13 350 4.8 6.4 0.00 2.77 2.77 97 1015.0
20260503002342 13 50 0.0 6.4 0.00 2.77 2.77 97 1014.8
20260503001838 13 19 6.4 8.0 0.00 2.77 2.77 97 1014.8
20260503001335 13 21 6.4 8.0 0.00 2.77 2.77 97 1014.8
20260503000832 13 10 3.2 6.4 0.00 2.77 2.77 97 1014.9
20260503000330 13 0 4.8 6.4 0.00 2.77 2.77 97 1014.9
20260502235827 13 2 1.6 4.8 0.05 2.77 2.77 97 1014.6
20260502235324 13 3 3.2 6.4 0.05 2.77 2.77 97 1014.6
20260502234820 13 0 3.2 6.4 0.05 2.74 2.74 97 1014.6
20260502234317 13 10 3.2 6.4 0.13 2.74 2.74 97 1014.5
20260502233814 13 26 6.4 6.4 0.05 2.74 2.74 97 1014.5
20260502233310 13 0 3.2 9.7 0.05 2.72 2.72 97 1014.4
20260502232807 13 336 3.2 4.8 0.05 2.72 2.72 97 1014.1
20260502232305 13 25 3.2 6.4 0.00 2.72 2.72 97 1014.2
20260502231800 13 28 3.2 4.8 0.00 2.72 2.72 97 1013.9
20260502231258 13 354 4.8 12.9 0.00 2.72 2.72 97 1013.7
20260502230756 13 12 4.8 8.0 0.00 2.72 2.72 97 1014.0
20260502230254 13 22 4.8 6.4 0.00 2.72 2.72 97 1013.8
20260502225750 13 23 3.2 4.8 0.00 2.72 2.72 97 1013.9
20260502225247 13 52 8.0 8.0 0.00 2.72 2.72 97 1013.8
20260502224743 13 8 4.8 9.7 0.05 2.72 2.72 97 1013.9
20260502224240 13 1 4.8 11.3 0.05 2.72 2.72 97 1014.0
20260502223738 13 38 8.0 9.7 0.00 2.72 2.72 97 1014.0
20260502223236 13 344 0.0 9.7 0.00 2.72 2.72 97 1014.2
20260502222733 13 0 6.4 14.5 0.00 2.72 2.72 96 1014.1
20260502222230 13 340 4.8 11.3 0.00 2.72 2.72 97 1014.0
20260502221725 13 56 4.8 11.3 0.05 2.72 2.72 97 1013.8
20260502221223 13 42 12.9 19.3 0.05 2.72 2.72 97 1014.0
20260502220719 13 52 4.8 9.7 0.00 2.69 2.69 97 1013.9
20260502220215 13 124 0.0 8.0 0.00 2.69 2.69 97 1013.8
20260502215712 13 67 4.8 8.0 0.00 2.69 2.69 97 1013.6
20260502215209 13 14 4.8 6.4 0.05 2.69 2.69 97 1013.3
20260502214707 13 352 4.8 4.8 0.05 2.69 2.69 97 1013.2
20260502214204 13 34 9.7 12.9 0.00 2.69 2.69 97 1013.5